UAE8UW KJFK-OMDB

Flight info

Callsign UAE8UW
Flight time N/A
Altitude 33000
Route MERIT DCT HFD DCT PUT DCT TUSKY/M084F330 N71B RAFIN/M084F350 DCT 45N050W 46N040W 46N030W 44N020W/M084F370 DCT ARMED/N0482F370 DCT BARDI/N0482F360 M191 DIPOL M871 NVS/N0485F370 DCT NANDO/N0488F380 T257 LASPO/N0482F370 DCT LUXUR UM134 ANB UA411 MORJA DCT SONAK DCT BONAR/N0483F390 M980 LOSUL M855 MMA P751 DASUM Y234 FYM M872 BDB Y214 RAPMA DCT KUVSO DCT KATIT DCT PEKEM M628 RIGIL G783 ASPED Q308 KIPOK Q568 IMPED
Aircraft A388/J-SADE2E3FGHIJ3J4J5M1RWXY/LB1D1

Departure

Time 2026-05-06 01:19
Airport John F. Kennedy International Airport (KJFK)

Arrival

Time N/A
Airport Dubai International Airport (OMDB)
Time Latitude Longitude Altitude Speed Heading
2026-05-06 00:49 40.64213 -73.77859 25 ft 0 kts 61°
2026-05-06 01:00 40.64212 -73.77860 25 ft 2 kts 61°
2026-05-06 01:01 40.64206 -73.77875 26 ft 2 kts 61°
2026-05-06 01:01 40.64200 -73.77889 31 ft 2 kts 61°
2026-05-06 01:01 40.64195 -73.77905 31 ft 2 kts 73°
2026-05-06 01:01 40.64195 -73.77922 29 ft 2 kts 95°
2026-05-06 01:02 40.64199 -73.77937 28 ft 2 kts 116°
2026-05-06 01:02 40.64206 -73.77951 24 ft 2 kts 118°
2026-05-06 01:02 40.64206 -73.77952 24 ft 0 kts 117°
2026-05-06 01:05 40.64206 -73.77951 24 ft 1 kts 117°
2026-05-06 01:05 40.64204 -73.77946 27 ft 2 kts 117°
2026-05-06 01:06 40.64196 -73.77925 29 ft 3 kts 117°
2026-05-06 01:06 40.64182 -73.77892 28 ft 5 kts 117°
2026-05-06 01:06 40.64174 -73.77868 28 ft 0 kts 115°
2026-05-06 01:06 40.64173 -73.77866 28 ft 2 kts 122°
2026-05-06 01:07 40.64163 -73.77857 25 ft 1 kts 175°
2026-05-06 01:07 40.64161 -73.77857 25 ft 0 kts 176°
2026-05-06 01:08 40.64159 -73.77857 25 ft 3 kts 176°
2026-05-06 01:08 40.64131 -73.77860 28 ft 4 kts 191°
2026-05-06 01:08 40.64096 -73.77869 27 ft 5 kts 191°
2026-05-06 01:08 40.64040 -73.77883 28 ft 12 kts 191°
2026-05-06 01:09 40.63968 -73.77856 28 ft 15 kts 148°
2026-05-06 01:09 40.63889 -73.77790 31 ft 7 kts 146°
2026-05-06 01:09 40.63851 -73.77756 28 ft 5 kts 143°
2026-05-06 01:09 40.63840 -73.77745 28 ft 0 kts 143°
2026-05-06 01:11 40.63814 -73.77719 27 ft 6 kts 142°
2026-05-06 01:11 40.63783 -73.77684 30 ft 7 kts 141°
2026-05-06 01:12 40.63727 -73.77657 28 ft 8 kts 170°
2026-05-06 01:12 40.63680 -73.77641 30 ft 6 kts 153°
2026-05-06 01:12 40.63664 -73.77625 28 ft 1 kts 110°
2026-05-06 01:12 40.63669 -73.77599 29 ft 6 kts 56°
2026-05-06 01:13 40.63712 -73.77548 27 ft 11 kts 31°
2026-05-06 01:13 40.63795 -73.77484 29 ft 16 kts 30°
2026-05-06 01:13 40.63902 -73.77404 28 ft 19 kts 30°
2026-05-06 01:13 40.63991 -73.77332 31 ft 15 kts 32°
2026-05-06 01:14 40.64186 -73.77178 29 ft 18 kts 30°
2026-05-06 01:14 40.64279 -73.77106 27 ft 11 kts 30°
2026-05-06 01:14 40.64350 -73.77051 30 ft 13 kts 30°
2026-05-06 01:15 40.64433 -73.77000 27 ft 14 kts 13°
2026-05-06 01:15 40.64533 -73.76970 28 ft 15 kts 34°
2026-05-06 01:15 40.64625 -73.76897 29 ft 16 kts 29°
2026-05-06 01:15 40.64725 -73.76822 28 ft 17 kts 31°
2026-05-06 01:16 40.64819 -73.76746 26 ft 16 kts 31°
2026-05-06 01:16 40.64917 -73.76669 26 ft 17 kts 30°
2026-05-06 01:16 40.65009 -73.76598 29 ft 16 kts 31°
2026-05-06 01:16 40.65074 -73.76547 26 ft 7 kts 32°
2026-05-06 01:17 40.65096 -73.76507 26 ft 5 kts 85°
2026-05-06 01:17 40.65086 -73.76442 27 ft 10 kts 115°
2026-05-06 01:17 40.65055 -73.76368 27 ft 6 kts 136°
2026-05-06 01:17 40.65025 -73.76354 27 ft 3 kts 188°
2026-05-06 01:18 40.64953 -73.76407 27 ft 22 kts 211°
2026-05-06 01:18 40.64656 -73.76636 27 ft 83 kts 211°
2026-05-06 01:18 40.63991 -73.77157 26 ft 134 kts 211°
2026-05-06 01:18 40.63102 -73.77848 49 ft 161 kts 208°
2026-05-06 01:19 40.62165 -73.78617 578 ft 154 kts 210°
2026-05-06 01:19 40.61265 -73.79364 1049 ft 151 kts 211°
2026-05-06 01:19 40.60393 -73.80039 1629 ft 140 kts 210°
2026-05-06 01:19 40.59469 -73.80531 1912 ft 154 kts 189°
2026-05-06 01:20 40.58371 -73.80082 2037 ft 187 kts 153°
2026-05-06 01:20 40.57561 -73.78575 2124 ft 224 kts 118°
2026-05-06 01:20 40.57455 -73.76410 2220 ft 254 kts 85°
2026-05-06 01:20 40.57991 -73.74082 2327 ft 276 kts 77°
2026-05-06 01:21 40.58594 -73.71603 2522 ft 295 kts 77°
2026-05-06 01:21 40.59222 -73.68983 3058 ft 301 kts 77°
2026-05-06 01:21 40.59968 -73.66396 3618 ft 308 kts 59°
2026-05-06 01:21 40.61417 -73.64322 4311 ft 304 kts 31°
2026-05-06 01:22 40.63248 -73.63018 5012 ft 300 kts 21°
2026-05-06 01:22 40.65129 -73.61828 5664 ft 300 kts 21°
2026-05-06 01:22 40.67015 -73.60628 6328 ft 301 kts 21°
2026-05-06 01:22 40.68891 -73.59420 6970 ft 302 kts 21°
2026-05-06 01:23 40.70153 -73.58602 7389 ft 303 kts 21°
2026-05-06 01:23 40.72068 -73.57355 8028 ft 305 kts 22°
2026-05-06 01:23 40.73950 -73.56127 8689 ft 304 kts 22°
2026-05-06 01:23 40.75875 -73.54870 9307 ft 307 kts 22°
2026-05-06 01:24 40.77794 -73.53616 9909 ft 309 kts 22°
2026-05-06 01:24 40.79717 -73.52361 10308 ft 318 kts 22°
2026-05-06 01:24 40.81773 -73.51022 10472 ft 334 kts 23°
2026-05-06 01:24 40.83894 -73.49638 10618 ft 349 kts 23°
2026-05-06 01:25 40.86101 -73.48195 10830 ft 361 kts 23°
2026-05-06 01:25 40.88365 -73.46708 11315 ft 364 kts 23°
2026-05-06 01:25 40.90640 -73.45212 11792 ft 368 kts 23°
2026-05-06 01:25 40.92949 -73.43693 12305 ft 370 kts 23°
2026-05-06 01:26 40.95277 -73.42163 12790 ft 373 kts 23°
2026-05-06 01:26 40.97609 -73.40630 13292 ft 376 kts 23°
2026-05-06 01:26 40.99964 -73.39081 13753 ft 379 kts 23°
2026-05-06 01:26 41.02310 -73.37520 14184 ft 383 kts 25°
2026-05-06 01:27 41.04666 -73.35769 14621 ft 386 kts 27°
2026-05-06 01:27 41.06985 -73.34004 15022 ft 389 kts 27°
2026-05-06 01:27 41.09255 -73.32046 15429 ft 396 kts 40°
2026-05-06 01:27 41.11182 -73.29351 15846 ft 400 kts 47°
2026-05-06 01:28 41.13016 -73.26611 16242 ft 403 kts 47°
2026-05-06 01:28 41.14887 -73.23818 16669 ft 406 kts 47°
2026-05-06 01:28 41.16789 -73.20981 17051 ft 409 kts 47°
2026-05-06 01:28 41.18690 -73.18171 17457 ft 412 kts 47°
2026-05-06 01:29 41.20590 -73.15341 17838 ft 416 kts 47°
2026-05-06 01:29 41.22536 -73.12452 18225 ft 419 kts 47°
2026-05-06 01:29 41.24474 -73.09579 18558 ft 421 kts 47°
2026-05-06 01:29 41.26453 -73.06644 18939 ft 423 kts 47°
2026-05-06 01:30 41.28411 -73.03742 19322 ft 424 kts 47°
2026-05-06 01:30 41.30374 -73.00827 19682 ft 426 kts 47°
2026-05-06 01:30 41.32288 -72.97983 20034 ft 427 kts 47°
2026-05-06 01:30 41.34285 -72.95212 20357 ft 428 kts 39°
2026-05-06 01:31 41.36668 -72.92858 20717 ft 427 kts 32°
2026-05-06 01:31 41.39139 -72.90610 21061 ft 429 kts 32°
2026-05-06 01:31 41.41601 -72.88374 21398 ft 430 kts 32°
2026-05-06 01:31 41.44055 -72.86048 21716 ft 434 kts 39°
2026-05-06 01:32 41.46132 -72.83154 22058 ft 437 kts 48°
2026-05-06 01:32 41.48092 -72.80054 22380 ft 439 kts 49°
2026-05-06 01:32 41.50083 -72.76892 22738 ft 441 kts 49°
2026-05-06 01:32 41.52048 -72.73780 23095 ft 442 kts 48°
2026-05-06 01:33 41.54042 -72.70634 23411 ft 444 kts 48°
2026-05-06 01:33 41.56053 -72.67466 23703 ft 445 kts 48°
2026-05-06 01:33 41.58045 -72.64328 23985 ft 447 kts 48°
2026-05-06 01:33 41.60050 -72.61168 24240 ft 449 kts 48°
2026-05-06 01:34 41.62083 -72.57960 24511 ft 450 kts 48°
2026-05-06 01:34 41.64056 -72.54721 24782 ft 453 kts 53°
2026-05-06 01:34 41.65744 -72.51170 25056 ft 456 kts 58°
2026-05-06 01:34 41.67374 -72.47497 25350 ft 458 kts 57°
2026-05-06 01:35 41.69026 -72.43834 25647 ft 459 kts 57°
2026-05-06 01:35 41.70676 -72.40187 25991 ft 461 kts 57°
2026-05-06 01:35 41.72327 -72.36526 26294 ft 463 kts 57°
2026-05-06 01:35 41.74011 -72.32784 26608 ft 465 kts 57°
2026-05-06 01:36 41.75662 -72.29109 26917 ft 467 kts 57°
2026-05-06 01:36 41.77354 -72.25334 27258 ft 469 kts 57°
2026-05-06 01:36 41.79027 -72.21593 27565 ft 471 kts 57°
2026-05-06 01:36 41.80727 -72.17790 27897 ft 474 kts 57°
2026-05-06 01:37 41.82416 -72.14007 28252 ft 475 kts 57°
2026-05-06 01:37 41.84112 -72.10204 28581 ft 477 kts 57°
2026-05-06 01:37 41.85817 -72.06375 28938 ft 479 kts 56°
2026-05-06 01:37 41.87537 -72.02507 29293 ft 481 kts 56°
2026-05-06 01:38 41.89231 -71.98694 29630 ft 482 kts 56°
2026-05-06 01:38 41.90968 -71.94777 29988 ft 484 kts 56°
2026-05-06 01:38 41.92680 -71.90914 30279 ft 486 kts 56°
2026-05-06 01:38 41.94416 -71.86988 30592 ft 487 kts 56°
2026-05-06 01:39 41.96077 -71.83017 30883 ft 491 kts 62°
2026-05-06 01:39 41.97547 -71.78864 31199 ft 492 kts 61°
2026-05-06 01:39 41.99036 -71.74715 31490 ft 494 kts 61°
2026-05-06 01:39 42.00540 -71.70557 31777 ft 496 kts 61°
2026-05-06 01:40 42.02046 -71.66394 32061 ft 498 kts 60°
2026-05-06 01:40 42.03556 -71.62216 32347 ft 500 kts 60°
2026-05-06 01:40 42.05076 -71.58001 32617 ft 502 kts 60°
2026-05-06 01:40 42.06607 -71.53743 32892 ft 504 kts 60°
2026-05-06 01:41 42.08124 -71.49514 33171 ft 505 kts 60°
2026-05-06 01:41 42.09662 -71.45216 33449 ft 507 kts 60°
2026-05-06 01:41 42.11200 -71.40909 33733 ft 509 kts 60°
2026-05-06 01:41 42.12721 -71.36645 33975 ft 511 kts 60°
2026-05-06 01:42 42.14251 -71.32347 34226 ft 512 kts 60°
2026-05-06 01:42 42.15798 -71.27992 34516 ft 513 kts 60°